SCP
0 0 0 -0 -0 0 0 0 0 0 0 0 0 0 0 0 0 0 0 0 0 0 -0 0 -0 -0 -0 -0 -0 0 0 0 -0 -0 -0 -0 -0 0 0 -0 -0 0 0 0
0 0 -0 0 0 0 0 0 0 0 0 0 0 0 0 0 0 0 0 0 -0 -0 -0 -0 -0 -0 -0 -0 -0 0 0 0 0 0 0 0 0 0 0 0 0 0 0 0
0 0 0 0 0 0 0 0 0 0 0 0 0 0 0 0 0 0 0 0 -0 -0 -0 -0 -0 -0 -0 -0 -0 -0 -0 0 0 0 0 0 0 0 0 0 0 0 0 0
0 0 0 0 0 0 0 0 0 0 0 0 0 0 0 0 0 0 0 0 0 0 0 0 0 -0 -0 -0 -0 -0 0 0 0 0 0 0 0 0 0 0 0 0 0 0
0 0 0 0 0 0 0 0 0 0 0 0 0 0 0 0 0 0 0 0 0 0 0 -0 -0 -0 0 0 0 -0 0 0 0 -0 0 0 0 0 0 0 0 0 0 0
0 0 0 0 0 0 0 -0 0 0 0 -0 0 -0 0 0 -0 0 -0 -0 -0 -0 -0 -0 -0 -0 0 0 0 0 0 0 0 0 0 0 -0 0 0 0 0 0 0 0
-0 -0 0 0 0 -0 0 0 0 0 0 0 -0 0 0 0 -0 -0 -0 0 0 -0 -0 -0 -0 -0 -0 0 0 0 0 0 0 0 0 0 0 0 0 0 0 0 0 0
0 0 0 -0 0 0 0 -0 0 -0 0 0 0 0 0 0 0 0 0 0 0 0 0 0 0 0 0 0 0 0 0 0 0 0 0 0 0 0 0 0 0 0 0 0
0 0 -0 -0 -0 0 0 0 0 0 0 0 0 0 0 0 0 0 0 0 -0 -0 0 0 0 0 0 0 0 0 0 0 0 0 0 0 0 0 0 0 0 0 0 0
0 0 0 0 0 0 0 0 0 0 0 0 0 0 0 0 0 0 0 0 -0 -0 -0 -0 0 0 0 0 0 0 0 0 0 0 0 0 0 0 0 0 0 0 0 0
0 -0 0 0 0 0 0 0 0 0 0 0 0 0 0 0 0 0 0 0 0 0 0 0 0 0 0 0 0 0 0 0 0 0 0 0 0 0 0 0 0 0 0 0
0 0 0 0 0 0 0 0 0 0 0 0 0 0 0 0 0 0 0 0 0 0 0 0 0 0 0 0 0 0 0 0 0 0 0 0 0 0 0 0 0 0 0 0
0 0 -0 0 0 0 0 0 0 0 0 0 0 0 0 0 0 0 0 0 0 0 0 0 0 0 0 0 0 0 0 0 0 0 0 0 0 0 0 0 0 0 0 0
-0 -0 0 0 0 0 0 0 0 0 0 0 0 0 0 0 0 0 0 0 0 0 0 0 0 0 0 0 0 0 0 0 0 0 0 0 0 0 0 0 0 0 0 0
-0 -0 -0 -0 -0 -0 0 0 0 0 0 0 0 0 0 0 0 0 0 0 0 0 0 0 0 0 0 0 0 0 0 0 0 0 0 0 0 0 0 0 0 0 0 0
-0 -0 -0 -0 -0 -0 -0 0 0 0 0 0 0 0 0 0 0 0 0 0 0 0 0 0 0 0 0 0 0 0 0 0 0 0 0 0 0 0 0 0 0 0 0 0
0 0 0 0 -0 -0 0 0 0 0 0 0 0 0 0 0 0 0 0 0 0 0 0 0 0 0 0 0 0 0 0 0 0 0 0 0 0 0 0 0 0 0 0 0
0 0 0 0 0 0 0 0 0 0 0 0 0 0 0 0 0 0 0 0 0 0 0 0 0 0 0 0 0 0 0 0 0 0 0 0 0 0 0 0 0 0 0 0
0 0 0 0 0 0 0 0 0 0 0 0 0 0 0 0 0 0 0 0 0 0 0 0 0 0 0 0 0 0 0 0 0 0 0 0 0 0 0 0 0 0 0 0
0 0 0 0 0 0 0 0 0 0 0 0 0 0 0 0 0 0 0 0 0 0 0 0 0 0 0 0 0 0 0 0 0 0 0 0 0 0 0 0 0 0 0 0
0 0 0 0 0 0 0 0 0 0 0 0 0 0 0 0 0 0 0 0 0 0 0 0 0 0 0 0 0 0 0 0 0 0 0 0 0 0 0 0 0 0 0 0
0 0 0 0 0 0 0 0 0 0 0 0 0 0 0 0 0 0 0 0 0 0 0 0 0 0 0 0 0 0 0 0 0 0 0 0 0 0 0 0 0 0 0 0
0 0 0 0 0 0 0 0 0 0 0 0 0 0 0 0 0 0 0 0 0 0 0 0 0 0 0 0 0 0 0 0 0 0 0 0 0 0 0 0 0 0 0 0
0 0 0 0 0 0 0 0 0 0 0 0 0 0 0 0 0 0 0 0 0 0 0 0 0 0 0 0 0 0 0 0 0 0 0 0 0 0 0 0 0 0 0 0
0 0 0 0 0 0 0 0 0 0 0 0 0 0 0 0 0 0 0 0 0 0 0 0 0 0 0 0 0 0 0 0 0 0 0 0 0 0 0 0 0 0 0 0
0 0 0 0 0 0 0 0 0 0 0 0 0 0 0 0 0 0 0 0 0 0 0 0 0 0 0 0 0 0 0 0 0 0 0 0 0 0 0 0 0 0 0 0
0 0 0 0 0 0 0 0 0 0 0 0 0 0 0 0 0 0 0 0 0 0 0 0 0 0 0 0 0 0 0 0 0 0 0 0 0 0 0 0 0 0 0 0
Wind_Speed_500mb
10 10 30 28 28 27 28 15 13 16 28 27 29 30 41 57 65 74 82 76 81 94 82 70 68 57 46 48 37 35 36 35 32 27 38 29 28 28 32 38 40 56 57 56
6 10 30 22 24 26 21 15 13 9 13 13 26 40 55 55 59 69 63 60 84 84 82 75 63 53 43 39 33 23 23 23 19 17 17 20 16 14 21 31 35 40 35 31
4 8 4 13 15 16 10 13 7 11 5 12 25 34 43 43 49 45 55 71 70 72 68 62 59 51 46 41 30 25 22 20 14 13 14 12 11 16 16 18 23 28 29 33
3 6 9 5 6 8 16 20 13 10 3 11 21 31 46 47 46 53 56 60 64 61 58 52 44 39 31 21 24 22 22 17 14 10 5 5 7 9 13 19 30 36 38 35
6 6 5 1 4 2 5 10 14 11 8 8 7 15 41 51 49 46 44 44 49 49 49 48 48 44 38 35 31 27 24 18 12 8 5 3 4 8 11 14 18 22 26 32
4 6 4 5 4 2 3 5 15 19 17 16 3 12 9 34 39 43 44 43 41 42 46 48 43 35 34 36 31 32 26 21 17 12 5 6 8 8 7 11 13 20 25 28
4 4 5 7 7 3 3 8 11 15 21 29 11 13 9 22 35 38 42 40 36 39 44 45 37 34 37 35 39 33 25 20 16 12 9 6 5 7 9 12 15 20 22 25
2 3 7 6 5 10 16 21 21 19 17 20 19 15 15 18 25 30 34 37 36 34 37 35 31 26 30 35 33 26 24 21 19 16 13 13 14 14 13 13 17 19 25 28
11 8 5 6 13 27 38 33 22 25 19 16 10 10 16 21 23 25 28 30 31 34 32 32 29 28 28 31 24 22 21 22 20 17 15 15 16 18 19 18 17 20 24 27
4 6 11 18 24 26 35 32 29 27 24 23 23 14 7 6 10 10 14 19 23 23 24 26 29 29 28 26 24 22 21 21 20 17 14 13 13 14 16 20 22 24 27 28
6 4 9 18 25 30 28 28 29 27 26 27 22 20 17 18 12 4 7 9 9 9 11 14 19 22 20 19 22 26 26 22 20 18 16 16 16 16 17 19 21 25 30 32
12 32 16 25 40 37 35 35 30 27 27 25 22 21 18 17 13 10 8 4 0 5 10 13 10 10 12 15 18 23 27 26 24 23 23 23 22 21 23 25 26 29 32 34
8 17 32 15 46 40 35 32 28 24 20 20 18 15 13 13 15 15 14 13 11 7 2 6 12 18 14 16 20 25 29 28 26 27 26 25 24 27 29 24 29 32 34 35
19 36 18 47 44 42 36 31 25 21 18 16 14 14 14 13 13 14 13 12 12 12 14 13 13 13 16 16 16 18 18 21 27 31 30 29 30 31 31 32 33 31 26 32
41 39 27 39 33 43 37 33 27 21 16 14 13 13 13 13 13 11 10 10 11 12 12 13 15 17 17 18 18 19 20 21 22 21 21 24 27 28 31 32 33 33 32 26
46 37 29 41 42 47 41 36 29 24 20 17 16 15 14 15 14 14 14 14 15 16 18 20 22 23 24 24 25 22 18 17 18 18 19 20 20 23 25 28 30 31 31 30
56 40 42 43 47 46 43 32 26 24 20 18 18 16 16 15 17 17 15 15 17 15 17 21 26 28 26 24 21 19 19 19 19 22 25 25 26 27 28 30 30 32 33 34
55 52 48 43 47 44 40 34 28 23 18 16 16 15 15 17 15 16 16 18 20 19 21 24 24 21 18 17 17 18 19 20 21 22 20 20 20 21 22 23 26 28 29 30
49 41 45 42 40 39 35 32 26 21 18 16 15 14 15 15 16 18 22 21 22 22 19 21 18 16 16 19 19 19 20 21 22 22 22 22 21 21 23 25 28 30 33 34
50 38 40 42 40 39 36 30 26 20 16 15 15 16 17 17 20 22 29 21 21 23 23 20 20 20 22 21 22 23 25 26 25 24 23 23 23 25 27 29 34 36 36 35
54 47 46 44 42 38 33 28 24 19 15 15 16 17 20 21 24 30 26 20 13 23 21 20 22 21 23 26 28 29 29 29 30 28 28 27 28 29 32 33 35 36 38 38
58 54 50 47 44 39 33 28 22 16 14 14 15 16 18 19 22 23 22 26 16 23 22 22 24 26 28 29 29 31 32 32 32 32 33 33 34 35 35 35 36 37 37 38
58 53 51 47 42 36 32 26 18 14 12 13 14 15 16 16 17 22 18 16 21 23 29 29 30 30 33 36 36 37 34 33 33 32 33 33 34 35 35 35 37 37 38 38
56 53 47 42 40 36 31 21 16 13 12 12 12 16 17 19 19 20 22 24 27 30 33 31 33 34 35 37 36 37 38 35 32 31 32 33 34 34 36 37 37 36 38 38
55 52 50 46 40 33 27 21 16 14 13 13 14 16 18 20 27 22 25 28 30 31 34 35 38 40 40 40 39 39 41 35 33 33 32 33 33 35 35 36 37 37 37 35
60 57 49 41 33 31 26 21 16 15 16 17 17 18 20 23 26 28 29 30 31 32 33 34 36 37 37 39 37 35 33 33 31 28 33 35 35 35 35 35 36 36 35 30
54 49 46 42 40 34 26 21 19 16 19 21 22 20 23 25 27 29 30 30 31 32 33 33 33 33 33 33 32 31 30 29 29 29 32 35 35 35 35 35 36 34 26 21
Wind_Direction_500mb
83 80 64 45 39 28 41 21 44 7 27 15 16 14 20 12 10 24 36 37 54 67 83 89 97 103 102 102 105 123 148 154 154 160 179 210 223 220 228 231 230 218 224 227
20 54 76 57 35 35 31 26 51 359 39 12 24 35 28 9 18 26 23 38 56 64 67 74 80 83 93 99 101 108 112 120 133 153 167 180 198 217 222 227 229 231 242 241
270 221 44 31 6 38 22 24 15 35 2 339 36 39 36 23 24 19 29 48 58 61 64 65 66 71 72 77 84 93 102 101 122 138 169 196 220 236 229 232 230 240 248 251
243 33 47 219 129 57 52 22 17 81 120 87 77 53 38 39 40 42 49 58 66 68 68 74 81 92 99 75 67 62 70 74 78 82 80 148 187 205 223 230 239 242 248 248
97 64 125 222 225 199 46 347 348 16 97 203 103 18 33 28 43 51 59 66 73 78 79 72 67 69 76 76 71 75 77 71 59 47 39 25 272 236 229 237 237 236 230 221
47 97 178 204 198 97 311 3 354 29 13 59 297 44 357 22 40 46 54 64 73 76 77 75 68 71 75 74 73 69 65 61 61 57 42 353 339 314 299 278 261 254 246 243
3 98 284 168 157 130 91 184 105 71 58 70 95 114 49 40 50 51 55 61 66 68 70 72 75 72 73 78 74 69 64 57 46 34 22 6 277 277 264 266 264 255 254 249
116 107 280 156 132 168 137 126 120 100 87 78 81 89 79 73 68 60 60 64 66 68 69 69 67 61 64 62 62 60 57 56 54 45 23 353 331 315 302 283 272 271 261 260
178 210 170 124 137 134 141 139 140 132 134 132 110 38 24 36 50 61 64 63 58 60 66 65 59 54 54 56 50 42 41 36 28 25 25 17 355 336 322 305 289 280 273 265
51 208 178 156 149 139 156 149 146 148 150 161 156 160 143 80 63 59 67 70 65 59 60 60 55 56 58 51 38 23 12 8 4 5 1 348 343 332 326 320 311 302 295 288
267 305 154 208 185 165 158 156 156 153 154 158 164 168 166 166 163 117 59 57 48 35 35 40 40 32 31 24 19 11 360 351 348 339 330 318 316 308 303 297 297 299 297 295
214 196 187 208 187 185 178 172 167 165 161 169 173 178 181 178 179 173 178 185 317 338 345 350 343 326 338 339 343 342 339 337 330 316 312 311 309 298 289 283 282 281 282 283
212 207 202 208 184 187 186 179 176 172 172 170 177 187 191 189 188 193 198 199 207 218 199 320 319 309 304 310 310 315 324 322 319 316 311 304 298 296 295 280 283 279 278 279
196 167 152 167 178 187 190 183 183 181 183 189 186 187 196 199 202 213 219 227 227 230 255 263 267 275 295 302 298 301 308 308 311 311 307 304 301 302 304 302 297 289 281 284
179 186 196 179 181 184 191 191 190 193 198 205 216 223 229 234 231 232 240 251 254 261 269 283 297 303 306 312 314 312 313 315 314 313 311 310 310 311 311 309 307 303 298 294
184 195 181 185 183 188 193 193 198 200 208 223 231 242 252 254 256 265 275 275 279 290 300 306 308 313 315 317 318 316 313 310 309 313 316 317 314 312 312 312 314 313 312 312
181 182 183 186 186 190 198 201 206 214 217 230 247 256 262 264 262 265 284 294 293 295 293 301 307 308 304 307 310 314 316 311 307 307 309 307 305 306 307 307 308 310 310 309
209 208 202 199 190 191 196 202 209 216 229 247 252 260 266 284 280 268 276 279 288 292 294 298 302 300 299 297 297 298 297 298 300 302 302 305 308 311 315 317 320 321 319 314
203 204 203 200 199 198 201 204 210 222 234 246 255 264 275 278 282 282 273 271 282 291 294 295 288 287 290 292 289 289 290 292 294 292 292 295 300 305 310 314 317 318 317 314
199 197 194 194 194 199 198 204 213 219 231 249 262 270 275 279 274 275 284 282 286 291 295 291 287 292 292 288 288 287 288 290 292 287 285 286 290 298 305 312 316 316 315 310
197 191 189 190 190 192 198 205 210 220 235 259 275 280 281 282 275 274 277 283 292 285 287 283 284 283 284 285 283 285 288 286 286 285 283 284 288 294 299 304 308 310 310 308
197 194 192 189 191 192 197 202 210 228 254 272 282 290 296 302 300 284 283 292 292 285 289 287 287 284 284 283 279 281 284 286 286 284 284 285 289 293 296 300 306 307 306 305
197 196 195 194 195 196 197 202 215 239 258 270 280 287 295 296 304 299 301 288 288 287 290 293 293 291 287 285 285 285 284 283 285 285 285 285 287 291 296 301 304 305 304 304
197 194 195 192 192 197 202 206 222 242 253 263 272 278 287 290 287 294 297 293 293 294 293 295 294 291 288 287 290 290 288 284 285 286 287 288 291 294 298 301 303 303 303 303
199 195 195 198 202 202 203 215 226 244 260 265 267 274 283 289 295 300 288 289 289 288 290 292 291 290 290 290 284 283 285 283 282 283 287 292 294 296 300 301 302 302 303 303
197 199 202 205 208 207 212 223 230 245 261 270 273 278 283 288 291 293 295 296 296 296 295 294 293 291 290 288 284 281 281 281 281 283 291 295 297 299 300 300 301 303 303 299
200 200 204 204 206 210 219 229 240 251 264 275 282 281 285 289 294 297 298 298 298 297 297 297 295 293 291 287 283 283 282 282 285 289 290 294 297 298 299 301 302 301 296 293
Wind_Speed_850mb
10 10 30 28 28 27 28 15 13 16 28 27 29 30 41 57 65 74 82 76 81 94 82 70 68 57 46 48 37 35 36 35 32 27 38 29 28 28 32 38 40 56 57 56
6 10 30 22 24 26 21 15 13 9 13 13 26 40 55 55 59 69 63 60 84 84 82 75 63 53 43 39 33 23 23 23 19 17 17 20 16 14 21 31 35 40 35 31
4 8 4 13 15 16 10 13 7 11 5 12 25 34 43 43 49 45 55 71 70 72 68 62 59 51 46 41 30 25 22 20 14 13 14 12 11 16 16 18 23 28 29 33
3 6 9 5 6 8 16 20 13 10 3 11 21 31 46 47 46 53 56 60 64 61 58 52 44 39 31 21 24 22 22 17 14 10 5 5 7 9 13 19 30 36 38 35
6 6 5 1 4 2 5 10 14 11 8 8 7 15 41 51 49 46 44 44 49 49 49 48 48 44 38 35 31 27 24 18 12 8 5 3 4 8 11 14 18 22 26 32
4 6 4 5 4 2 3 5 15 19 17 16 3 12 9 34 39 43 44 43 41 42 46 48 43 35 34 36 31 32 26 21 17 12 5 6 8 8 7 11 13 20 25 28
4 4 5 7 7 3 3 8 11 15 21 29 11 13 9 22 35 38 42 40 36 39 44 45 37 34 37 35 39 33 25 20 16 12 9 6 5 7 9 12 15 20 22 25
2 3 7 6 5 10 16 21 21 19 17 20 19 15 15 18 25 30 34 37 36 34 37 35 31 26 30 35 33 26 24 21 19 16 13 13 14 14 13 13 17 19 25 28
11 8 5 6 13 27 38 33 22 25 19 16 10 10 16 21 23 25 28 30 31 34 32 32 29 28 28 31 24 22 21 22 20 17 15 15 16 18 19 18 17 20 24 27
4 6 11 18 24 26 35 32 29 27 24 23 23 14 7 6 10 10 14 19 23 23 24 26 29 29 28 26 24 22 21 21 20 17 14 13 13 14 16 20 22 24 27 28
6 4 9 18 25 30 28 28 29 27 26 27 22 20 17 18 12 4 7 9 9 9 11 14 19 22 20 19 22 26 26 22 20 18 16 16 16 16 17 19 21 25 30 32
12 32 16 25 40 37 35 35 30 27 27 25 22 21 18 17 13 10 8 4 0 5 10 13 10 10 12 15 18 23 27 26 24 23 23 23 22 21 23 25 26 29 32 34
8 17 32 15 46 40 35 32 28 24 20 20 18 15 13 13 15 15 14 13 11 7 2 6 12 18 14 16 20 25 29 28 26 27 26 25 24 27 29 24 29 32 34 35
19 36 18 47 44 42 36 31 25 21 18 16 14 14 14 13 13 14 13 12 12 12 14 13 13 13 16 16 16 18 18 21 27 31 30 29 30 31 31 32 33 31 26 32
41 39 27 39 33 43 37 33 27 21 16 14 13 13 13 13 13 11 10 10 11 12 12 13 15 17 17 18 18 19 20 21 22 21 21 24 27 28 31 32 33 33 32 26
46 37 29 41 42 47 41 36 29 24 20 17 16 15 14 15 14 14 14 14 15 16 18 20 22 23 24 24 25 22 18 17 18 18 19 20 20 23 25 28 30 31 31 30
56 40 42 43 47 46 43 32 26 24 20 18 18 16 16 15 17 17 15 15 17 15 17 21 26 28 26 24 21 19 19 19 19 22 25 25 26 27 28 30 30 32 33 34
55 52 48 43 47 44 40 34 28 23 18 16 16 15 15 17 15 16 16 18 20 19 21 24 24 21 18 17 17 18 19 20 21 22 20 20 20 21 22 23 26 28 29 30
49 41 45 42 40 39 35 32 26 21 18 16 15 14 15 15 16 18 22 21 22 22 19 21 18 16 16 19 19 19 20 21 22 22 22 22 21 21 23 25 28 30 33 34
50 38 40 42 40 39 36 30 26 20 16 15 15 16 17 17 20 22 29 21 21 23 23 20 20 20 22 21 22 23 25 26 25 24 23 23 23 25 27 29 34 36 36 35
54 47 46 44 42 38 33 28 24 19 15 15 16 17 20 21 24 30 26 20 13 23 21 20 22 21 23 26 28 29 29 29 30 28 28 27 28 29 32 33 35 36 38 38
58 54 50 47 44 39 33 28 22 16 14 14 15 16 18 19 22 23 22 26 16 23 22 22 24 26 28 29 29 31 32 32 32 32 33 33 34 35 35 35 36 37 37 38
58 53 51 47 42 36 32 26 18 14 12 13 14 15 16 16 17 22 18 16 21 23 29 29 30 30 33 36 36 37 34 33 33 32 33 33 34 35 35 35 37 37 38 38
56 53 47 42 40 36 31 21 16 13 12 12 12 16 17 19 19 20 22 24 27 30 33 31 33 34 35 37 36 37 38 35 32 31 32 33 34 34 36 37 37 36 38 38
55 52 50 46 40 33 27 21 16 14 13 13 14 16 18 20 27 22 25 28 30 31 34 35 38 40 40 40 39 39 41 35 33 33 32 33 33 35 35 36 37 37 37 35
60 57 49 41 33 31 26 21 16 15 16 17 17 18 20 23 26 28 29 30 31 32 33 34 36 37 37 39 37 35 33 33 31 28 33 35 35 35 35 35 36 36 35 30
54 49 46 42 40 34 26 21 19 16 19 21 22 20 23 25 27 29 30 30 31 32 33 33 33 33 33 33 32 31 30 29 29 29 32 35 35 35 35 35 36 34 26 21
Wind_Direction_850mb
83 80 64 45 39 28 41 21 44 7 27 15 16 14 20 12 10 24 36 37 54 67 83 89 97 103 102 102 105 123 148 154 154 160 179 210 223 220 228 231 230 218 224 227
20 54 76 57 35 35 31 26 51 359 39 12 24 35 28 9 18 26 23 38 56 64 67 74 80 83 93 99 101 108 112 120 133 153 167 180 198 217 222 227 229 231 242 241
270 221 44 31 6 38 22 24 15 35 2 339 36 39 36 23 24 19 29 48 58 61 64 65 66 71 72 77 84 93 102 101 122 138 169 196 220 236 229 232 230 240 248 251
243 33 47 219 129 57 52 22 17 81 120 87 77 53 38 39 40 42 49 58 66 68 68 74 81 92 99 75 67 62 70 74 78 82 80 148 187 205 223 230 239 242 248 248
97 64 125 222 225 199 46 347 348 16 97 203 103 18 33 28 43 51 59 66 73 78 79 72 67 69 76 76 71 75 77 71 59 47 39 25 272 236 229 237 237 236 230 221
47 97 178 204 198 97 311 3 354 29 13 59 297 44 357 22 40 46 54 64 73 76 77 75 68 71 75 74 73 69 65 61 61 57 42 353 339 314 299 278 261 254 246 243
3 98 284 168 157 130 91 184 105 71 58 70 95 114 49 40 50 51 55 61 66 68 70 72 75 72 73 78 74 69 64 57 46 34 22 6 277 277 264 266 264 255 254 249
116 107 280 156 132 168 137 126 120 100 87 78 81 89 79 73 68 60 60 64 66 68 69 69 67 61 64 62 62 60 57 56 54 45 23 353 331 315 302 283 272 271 261 260
178 210 170 124 137 134 141 139 140 132 134 132 110 38 24 36 50 61 64 63 58 60 66 65 59 54 54 56 50 42 41 36 28 25 25 17 355 336 322 305 289 280 273 265
51 208 178 156 149 139 156 149 146 148 150 161 156 160 143 80 63 59 67 70 65 59 60 60 55 56 58 51 38 23 12 8 4 5 1 348 343 332 326 320 311 302 295 288
267 305 154 208 185 165 158 156 156 153 154 158 164 168 166 166 163 117 59 57 48 35 35 40 40 32 31 24 19 11 360 351 348 339 330 318 316 308 303 297 297 299 297 295
214 196 187 208 187 185 178 172 167 165 161 169 173 178 181 178 179 173 178 185 317 338 345 350 343 326 338 339 343 342 339 337 330 316 312 311 309 298 289 283 282 281 282 283
212 207 202 208 184 187 186 179 176 172 172 170 177 187 191 189 188 193 198 199 207 218 199 320 319 309 304 310 310 315 324 322 319 316 311 304 298 296 295 280 283 279 278 279
196 167 152 167 178 187 190 183 183 181 183 189 186 187 196 199 202 213 219 227 227 230 255 263 267 275 295 302 298 301 308 308 311 311 307 304 301 302 304 302 297 289 281 284
179 186 196 179 181 184 191 191 190 193 198 205 216 223 229 234 231 232 240 251 254 261 269 283 297 303 306 312 314 312 313 315 314 313 311 310 310 311 311 309 307 303 298 294
184 195 181 185 183 188 193 193 198 200 208 223 231 242 252 254 256 265 275 275 279 290 300 306 308 313 315 317 318 316 313 310 309 313 316 317 314 312 312 312 314 313 312 312
181 182 183 186 186 190 198 201 206 214 217 230 247 256 262 264 262 265 284 294 293 295 293 301 307 308 304 307 310 314 316 311 307 307 309 307 305 306 307 307 308 310 310 309
209 208 202 199 190 191 196 202 209 216 229 247 252 260 266 284 280 268 276 279 288 292 294 298 302 300 299 297 297 298 297 298 300 302 302 305 308 311 315 317 320 321 319 314
203 204 203 200 199 198 201 204 210 222 234 246 255 264 275 278 282 282 273 271 282 291 294 295 288 287 290 292 289 289 290 292 294 292 292 295 300 305 310 314 317 318 317 314
199 197 194 194 194 199 198 204 213 219 231 249 262 270 275 279 274 275 284 282 286 291 295 291 287 292 292 288 288 287 288 290 292 287 285 286 290 298 305 312 316 316 315 310
197 191 189 190 190 192 198 205 210 220 235 259 275 280 281 282 275 274 277 283 292 285 287 283 284 283 284 285 283 285 288 286 286 285 283 284 288 294 299 304 308 310 310 308
197 194 192 189 191 192 197 202 210 228 254 272 282 290 296 302 300 284 283 292 292 285 289 287 287 284 284 283 279 281 284 286 286 284 284 285 289 293 296 300 306 307 306 305
197 196 195 194 195 196 197 202 215 239 258 270 280 287 295 296 304 299 301 288 288 287 290 293 293 291 287 285 285 285 284 283 285 285 285 285 287 291 296 301 304 305 304 304
197 194 195 192 192 197 202 206 222 242 253 263 272 278 287 290 287 294 297 293 293 294 293 295 294 291 288 287 290 290 288 284 285 286 287 288 291 294 298 301 303 303 303 303
199 195 195 198 202 202 203 215 226 244 260 265 267 274 283 289 295 300 288 289 289 288 290 292 291 290 290 290 284 283 285 283 282 283 287 292 294 296 300 301 302 302 303 303
197 199 202 205 208 207 212 223 230 245 261 270 273 278 283 288 291 293 295 296 296 296 295 294 293 291 290 288 284 281 281 281 281 283 291 295 297 299 300 300 301 303 303 299
200 200 204 204 206 210 219 229 240 251 264 275 282 281 285 289 294 297 298 298 298 297 297 297 295 293 291 287 283 283 282 282 285 289 290 294 297 298 299 301 302 301 296 293